Time,TemperatureF,DewpointF,PressureIn,WindDirection,WindDirectionDegrees,WindSpeedMPH,WindSpeedGustMPH,Humidity,HourlyPrecipIn,Conditions,Clouds,dailyrainin,SolarRadiationWatts/m^2,SoftwareType,DateUTC
2013-11-22 00:03:00,31.3,29.8,30.34,NW,305,2.0,8.1,94,0.00,-SN,,0.00,0.0,WeatherDisplay:10.37,2013-11-22 06:03:00,
2013-11-22 00:08:00,31.2,29.7,30.34,NW,311,3.3,6.9,94,0.00,-SN,,0.00,0.0,WeatherDisplay:10.37,2013-11-22 06:08:00,
2013-11-22 00:13:00,31.2,29.7,30.34,NNW,327,0.8,4.6,94,0.00,-SN,,0.00,0.0,WeatherDisplay:10.37,2013-11-22 06:13:00,
2013-11-22 00:18:00,31.2,29.4,30.35,North,11,6.4,7.2,93,0.00,-SN,,0.00,0.0,WeatherDisplay:10.37,2013-11-22 06:18:00,
2013-11-22 00:23:00,31.0,29.2,30.35,NW,312,5.9,10.8,93,0.00,-SN,,0.00,0.0,WeatherDisplay:10.37,2013-11-22 06:23:00,
2013-11-22 00:28:00,31.0,29.2,30.35,NW,314,4.3,6.0,93,0.00,-SN,,0.00,0.0,WeatherDisplay:10.37,2013-11-22 06:28:00,
2013-11-22 00:33:00,31.0,29.2,30.34,NW,309,4.2,6.0,93,0.00,-SN,,0.00,0.0,WeatherDisplay:10.37,2013-11-22 06:33:00,
2013-11-22 00:38:00,31.0,29.2,30.34,North,350,2.1,8.4,93,0.00,-SN,,0.00,0.0,WeatherDisplay:10.37,2013-11-22 06:38:00,
2013-11-22 00:43:00,30.9,28.9,30.34,NW,317,1.3,3.6,92,0.00,-SN,,0.00,0.0,WeatherDisplay:10.37,2013-11-22 06:43:00,
2013-11-22 00:48:00,30.9,28.9,30.35,NW,311,4.1,6.0,92,0.00,-SN,,0.00,0.0,WeatherDisplay:10.37,2013-11-22 06:48:00,
2013-11-22 00:53:00,30.7,28.4,30.35,NW,315,5.3,8.4,91,0.00,-SN,,0.00,0.0,WeatherDisplay:10.37,2013-11-22 06:53:00,
2013-11-22 00:58:00,30.7,28.4,30.35,NW,305,5.7,9.6,91,0.00,-SN,,0.00,0.0,WeatherDisplay:10.37,2013-11-22 06:58:00,
2013-11-22 01:03:00,30.6,28.0,30.35,WNW,298,8.2,10.8,90,0.00,-SN,,0.00,0.0,WeatherDisplay:10.37,2013-11-22 07:03:00,
2013-11-22 01:08:00,30.6,28.0,30.35,NNW,329,5.9,8.4,90,0.00,-SN,,0.00,0.0,WeatherDisplay:10.37,2013-11-22 07:08:00,
2013-11-22 01:13:00,30.6,28.0,30.35,NW,311,2.7,6.0,90,0.00,-SN,,0.00,0.0,WeatherDisplay:10.37,2013-11-22 07:13:00,
2013-11-22 01:18:00,30.3,27.7,30.36,NW,313,4.0,8.1,90,0.00,-SN,,0.00,0.0,WeatherDisplay:10.37,2013-11-22 07:18:00,
2013-11-22 01:23:00,30.1,27.5,30.36,NW,306,2.0,5.8,90,0.00,-SN,,0.00,0.0,WeatherDisplay:10.37,2013-11-22 07:23:00,
2013-11-22 01:29:00,30.0,27.4,30.36,NW,321,4.0,5.8,90,0.00,-SN,,0.00,0.0,WeatherDisplay:10.37,2013-11-22 07:29:00,
2013-11-22 01:34:00,30.0,27.7,30.37,WNW,296,4.7,6.9,91,0.00,-SN,,0.00,0.0,WeatherDisplay:10.37,2013-11-22 07:34:00,
2013-11-22 01:39:00,29.7,27.4,30.37,NW,324,7.0,8.4,91,0.00,-SN,,0.00,0.0,WeatherDisplay:10.37,2013-11-22 07:39:00,
2013-11-22 01:44:00,29.5,27.2,30.37,NW,317,1.5,4.8,91,0.00,-SN,,0.00,0.0,WeatherDisplay:10.37,2013-11-22 07:44:00,
2013-11-22 01:49:00,29.5,27.2,30.38,North,355,2.7,6.0,91,0.00,-SN,,0.00,0.0,WeatherDisplay:10.37,2013-11-22 07:49:00,
2013-11-22 01:54:00,29.5,27.5,30.38,WNW,294,3.5,8.4,92,0.00,-SN,,0.00,0.0,WeatherDisplay:10.37,2013-11-22 07:54:00,
2013-11-22 01:59:00,29.5,27.5,30.38,NW,310,6.4,8.4,92,0.00,-SN,,0.00,0.0,WeatherDisplay:10.37,2013-11-22 07:59:00,
2013-11-22 02:04:00,29.4,27.1,30.39,NNW,342,2.4,6.9,91,0.00,-SN,,0.00,0.0,WeatherDisplay:10.37,2013-11-22 08:04:00,
2013-11-22 02:09:00,29.3,27.0,30.39,NW,313,4.8,7.2,91,0.00,-SN,,0.00,0.0,WeatherDisplay:10.37,2013-11-22 08:09:00,
2013-11-22 02:14:00,29.3,27.0,30.39,NW,309,6.3,8.4,91,0.00,-SN,,0.00,0.0,WeatherDisplay:10.37,2013-11-22 08:14:00,
2013-11-22 02:19:00,29.1,26.8,30.40,NW,309,6.2,8.4,91,0.00,-SN,,0.00,0.0,WeatherDisplay:10.37,2013-11-22 08:19:00,
2013-11-22 02:24:00,29.1,26.8,30.40,NW,323,6.6,7.2,91,0.00,-SN,,0.00,0.0,WeatherDisplay:10.37,2013-11-22 08:24:00,
2013-11-22 02:29:00,29.0,26.7,30.40,NW,304,5.0,6.0,91,0.00,-SN,,0.00,0.0,WeatherDisplay:10.37,2013-11-22 08:29:00,
2013-11-22 02:34:00,29.0,26.7,30.40,NW,308,5.1,15.0,91,0.00,-SN,,0.00,0.0,WeatherDisplay:10.37,2013-11-22 08:34:00,
2013-11-22 02:39:00,29.0,26.7,30.40,NW,307,6.5,10.8,91,0.00,-SN,,0.00,0.0,WeatherDisplay:10.37,2013-11-22 08:39:00,
2013-11-22 02:44:00,28.8,26.5,30.40,NW,315,6.0,9.6,91,0.00,-SN,,0.00,0.0,WeatherDisplay:10.37,2013-11-22 08:44:00,
2013-11-22 02:49:00,28.7,26.4,30.41,West,277,2.3,7.2,91,0.00,-SN,,0.00,0.0,WeatherDisplay:10.37,2013-11-22 08:49:00,
2013-11-22 02:54:00,28.4,26.1,30.41,NW,319,5.5,12.7,91,0.00,-SN,,0.00,0.0,WeatherDisplay:10.37,2013-11-22 08:54:00,
2013-11-22 02:59:00,28.2,25.9,30.41,NW,313,8.7,14.4,91,0.00,-SN,,0.00,0.0,WeatherDisplay:10.37,2013-11-22 08:59:00,
2013-11-22 03:04:00,28.2,25.9,30.41,NW,306,5.4,8.4,91,0.00,-SN,,0.00,0.0,WeatherDisplay:10.37,2013-11-22 09:04:00,
2013-11-22 03:09:00,28.1,25.8,30.41,WNW,295,3.9,6.9,91,0.00,-SN,,0.00,0.0,WeatherDisplay:10.37,2013-11-22 09:09:00,
2013-11-22 03:14:00,27.9,25.6,30.41,NW,306,6.7,10.8,91,0.00,-SN,,0.00,0.0,WeatherDisplay:10.37,2013-11-22 09:14:00,
2013-11-22 03:19:00,27.8,25.8,30.41,NW,321,5.9,8.4,92,0.00,-SN,,0.00,0.0,WeatherDisplay:10.37,2013-11-22 09:19:00,
2013-11-22 03:24:00,27.6,25.6,30.41,NNW,335,4.7,8.4,92,0.00,-SN,,0.00,0.0,WeatherDisplay:10.37,2013-11-22 09:24:00,
2013-11-22 03:29:00,27.5,25.5,30.41,NW,312,5.0,9.2,92,0.00,-SN,,0.00,0.0,WeatherDisplay:10.37,2013-11-22 09:29:00,
2013-11-22 03:34:00,27.5,25.5,30.42,WNW,303,2.5,9.2,92,0.00,-SN,,0.00,0.0,WeatherDisplay:10.37,2013-11-22 09:34:00,
2013-11-22 03:39:00,27.5,25.5,30.42,NW,322,3.9,7.2,92,0.00,-SN,,0.00,0.0,WeatherDisplay:10.37,2013-11-22 09:39:00,
2013-11-22 03:44:00,27.5,25.5,30.42,NW,306,6.3,7.2,92,0.00,-SN,,0.00,0.0,WeatherDisplay:10.37,2013-11-22 09:44:00,
2013-11-22 03:49:00,27.3,25.3,30.42,North,355,1.9,4.8,92,0.00,-SN,,0.00,0.0,WeatherDisplay:10.37,2013-11-22 09:49:00,
2013-11-22 03:54:00,27.3,25.3,30.42,NNW,341,5.8,8.4,92,0.00,-SN,,0.00,0.0,WeatherDisplay:10.37,2013-11-22 09:54:00,
2013-11-22 03:59:00,27.2,25.2,30.42,NNW,340,3.6,10.4,92,0.00,-SN,,0.00,0.0,WeatherDisplay:10.37,2013-11-22 09:59:00,
2013-11-22 04:04:00,27.2,25.2,30.42,NNW,329,4.1,6.0,92,0.00,-SN,,0.00,0.0,WeatherDisplay:10.37,2013-11-22 10:04:00,
2013-11-22 04:09:00,27.2,25.2,30.42,NW,319,2.3,4.8,92,0.00,-SN,,0.00,0.0,WeatherDisplay:10.37,2013-11-22 10:09:00,
2013-11-22 04:14:00,27.0,25.0,30.42,NNW,346,2.4,4.8,92,0.00,-SN,,0.00,0.0,WeatherDisplay:10.37,2013-11-22 10:14:00,
2013-11-22 04:19:00,27.0,25.0,30.42,NW,325,1.7,4.8,92,0.00,-SN,,0.00,0.0,WeatherDisplay:10.37,2013-11-22 10:19:00,
2013-11-22 04:24:00,27.0,25.0,30.42,NW,315,5.2,6.0,92,0.00,BKN,,0.00,0.0,WeatherDisplay:10.37,2013-11-22 10:24:00,
2013-11-22 04:29:00,26.9,24.9,30.42,WNW,294,0.0,4.6,92,0.00,BKN,,0.00,0.0,WeatherDisplay:10.37,2013-11-22 10:29:00,
2013-11-22 04:34:00,26.9,24.9,30.42,WNW,302,0.5,2.4,92,0.00,BKN,,0.00,0.0,WeatherDisplay:10.37,2013-11-22 10:34:00,
2013-11-22 04:39:00,26.9,24.9,30.42,NNW,329,4.9,8.4,92,0.00,BKN,,0.00,0.0,WeatherDisplay:10.37,2013-11-22 10:39:00,
2013-11-22 04:44:00,26.9,24.6,30.42,NW,319,5.5,8.1,91,0.00,-SN,,0.00,0.0,WeatherDisplay:10.37,2013-11-22 10:44:00,
2013-11-22 04:49:00,26.7,24.4,30.43,NW,313,2.0,4.8,91,0.00,-SN,,0.00,0.0,WeatherDisplay:10.37,2013-11-22 10:49:00,
2013-11-22 04:54:00,26.7,24.4,30.43,NW,321,5.3,7.2,91,0.00,-SN,,0.00,0.0,WeatherDisplay:10.37,2013-11-22 10:54:00,
2013-11-22 04:59:00,26.7,24.4,30.43,North,9,5.9,7.2,91,0.00,-SN,,0.00,0.0,WeatherDisplay:10.37,2013-11-22 10:59:00,
2013-11-22 05:04:00,26.7,24.4,30.43,NW,319,4.9,15.6,91,0.00,BKN,,0.00,0.0,WeatherDisplay:10.37,2013-11-22 11:04:00,
2013-11-22 05:09:00,26.7,24.4,30.43,NNW,331,4.0,9.6,91,0.00,BKN,,0.00,0.0,WeatherDisplay:10.37,2013-11-22 11:09:00,
2013-11-22 05:14:00,26.6,24.3,30.43,North,5,0.2,4.6,91,0.00,BKN,,0.00,0.0,WeatherDisplay:10.37,2013-11-22 11:14:00,
2013-11-22 05:19:00,26.6,24.3,30.44,WNW,299,2.9,6.9,91,0.00,BKN,,0.00,0.0,WeatherDisplay:10.37,2013-11-22 11:19:00,
2013-11-22 05:24:00,26.6,24.3,30.44,NNW,340,2.7,7.2,91,0.00,BKN,,0.00,0.0,WeatherDisplay:10.37,2013-11-22 11:24:00,
2013-11-22 05:29:00,26.6,24.3,30.45,WNW,293,3.1,6.0,91,0.00,BKN,,0.00,0.0,WeatherDisplay:10.37,2013-11-22 11:29:00,
2013-11-22 05:34:00,26.6,24.1,30.45,NNW,329,2.3,9.6,90,0.00,BKN,,0.00,0.0,WeatherDisplay:10.37,2013-11-22 11:34:00,
2013-11-22 05:39:00,26.6,24.1,30.45,NW,308,2.1,7.2,90,0.00,BKN,,0.00,0.0,WeatherDisplay:10.37,2013-11-22 11:39:00,
2013-11-22 05:44:00,26.6,24.1,30.45,NNW,345,3.5,8.1,90,0.00,OVC,,0.00,0.0,WeatherDisplay:10.37,2013-11-22 11:44:00,
2013-11-22 05:49:00,26.6,24.1,30.45,NNW,328,1.2,2.4,90,0.00,OVC,,0.00,0.0,WeatherDisplay:10.37,2013-11-22 11:49:00,
2013-11-22 05:54:00,26.7,24.2,30.45,WNW,302,4.5,10.8,90,0.00,OVC,,0.00,0.0,WeatherDisplay:10.37,2013-11-22 11:54:00,
2013-11-22 05:59:00,26.6,24.1,30.45,NW,322,4.9,8.1,90,0.00,OVC,,0.00,0.0,WeatherDisplay:10.37,2013-11-22 11:59:00,
2013-11-22 06:04:00,26.6,23.8,30.47,NW,320,4.0,9.2,89,0.00,OVC,,0.00,0.0,WeatherDisplay:10.37,2013-11-22 12:04:00,
2013-11-22 06:09:00,26.6,23.8,30.47,NW,316,4.3,4.3,89,0.00,OVC,,0.00,0.0,WeatherDisplay:10.37,2013-11-22 12:09:00,
2013-11-22 06:14:00,26.6,23.8,30.47,NW,309,0.4,3.6,89,0.00,OVC,,0.00,0.0,WeatherDisplay:10.37,2013-11-22 12:14:00,
2013-11-22 06:19:00,26.7,23.9,30.48,NW,305,3.6,8.4,89,0.00,OVC,,0.00,0.0,WeatherDisplay:10.37,2013-11-22 12:19:00,
2013-11-22 06:24:00,26.7,23.9,30.48,NW,321,2.1,8.1,89,0.00,OVC,,0.00,0.0,WeatherDisplay:10.37,2013-11-22 12:24:00,
2013-11-22 06:29:00,26.7,23.9,30.48,NW,306,1.5,6.0,89,0.00,OVC,,0.00,0.0,WeatherDisplay:10.37,2013-11-22 12:29:00,
2013-11-22 06:34:00,26.7,23.6,30.48,North,11,1.7,6.0,88,0.00,OVC,,0.00,0.0,WeatherDisplay:10.37,2013-11-22 12:34:00,
2013-11-22 06:39:00,26.4,23.3,30.48,North,355,4.2,8.4,88,0.00,OVC,,0.00,0.0,WeatherDisplay:10.37,2013-11-22 12:39:00,
2013-11-22 06:44:00,26.4,23.3,30.49,NNW,328,4.8,8.1,88,0.00,BKN,,0.00,0.0,WeatherDisplay:10.37,2013-11-22 12:44:00,
2013-11-22 06:49:00,26.3,23.0,30.49,NNW,342,4.6,11.5,87,0.00,BKN,,0.00,0.0,WeatherDisplay:10.37,2013-11-22 12:49:00,
2013-11-22 06:54:00,26.1,22.8,30.49,NNW,342,8.4,9.6,87,0.00,BKN,,0.00,0.0,WeatherDisplay:10.37,2013-11-22 12:54:00,
2013-11-22 06:59:00,26.1,22.5,30.49,NNW,328,6.6,8.4,86,0.00,BKN,,0.00,0.0,WeatherDisplay:10.37,2013-11-22 12:59:00,
2013-11-22 07:04:00,26.0,22.4,30.50,NW,324,6.6,9.6,86,0.00,SCT,,0.00,0.0,WeatherDisplay:10.37,2013-11-22 13:04:00,
2013-11-22 07:09:00,26.0,22.4,30.50,NW,307,9.2,14.4,86,0.00,SCT,,0.00,0.0,WeatherDisplay:10.37,2013-11-22 13:09:00,
2013-11-22 07:14:00,26.0,22.4,30.50,NW,316,3.3,4.8,86,0.00,SCT,,0.00,0.0,WeatherDisplay:10.37,2013-11-22 13:14:00,
2013-11-22 07:19:00,26.0,22.4,30.51,NW,321,5.5,6.9,86,0.00,SCT,,0.00,7.0,WeatherDisplay:10.37,2013-11-22 13:19:00,
2013-11-22 07:24:00,26.0,22.4,30.51,NW,325,0.2,4.6,86,0.00,CLR,,0.00,11.0,WeatherDisplay:10.37,2013-11-22 13:24:00,
2013-11-22 07:29:00,26.0,22.1,30.51,NW,315,2.8,7.2,85,0.00,CLR,,0.00,12.0,WeatherDisplay:10.37,2013-11-22 13:29:00,
2013-11-22 07:34:00,25.8,21.9,30.53,WNW,284,2.3,3.6,85,0.00,CLR,,0.00,16.0,WeatherDisplay:10.37,2013-11-22 13:34:00,
2013-11-22 07:39:00,25.7,21.8,30.53,WNW,291,1.8,8.1,85,0.00,CLR,,0.00,21.0,WeatherDisplay:10.37,2013-11-22 13:39:00,
2013-11-22 07:44:00,25.7,21.8,30.53,WNW,291,4.3,6.0,85,0.00,CLR,,0.00,19.0,WeatherDisplay:10.37,2013-11-22 13:44:00,
2013-11-22 07:49:00,25.7,21.5,30.53,NNW,331,0.0,0.0,84,0.00,CLR,,0.00,19.0,WeatherDisplay:10.37,2013-11-22 13:49:00,
2013-11-22 07:54:00,25.4,21.2,30.53,NNW,338,0.7,4.8,84,0.00,CLR,,0.00,23.0,WeatherDisplay:10.37,2013-11-22 13:54:00,
2013-11-22 07:59:00,25.4,21.2,30.53,NNW,336,0.0,0.0,84,0.00,CLR,,0.00,32.0,WeatherDisplay:10.37,2013-11-22 13:59:00,
2013-11-22 08:04:00,25.4,21.2,30.53,NW,326,1.5,5.8,84,0.00,CLR,,0.00,72.0,WeatherDisplay:10.37,2013-11-22 14:04:00,
2013-11-22 08:09:00,25.4,21.2,30.53,NW,309,1.8,4.8,84,0.00,CLR,,0.00,79.0,WeatherDisplay:10.37,2013-11-22 14:09:00,
2013-11-22 08:14:00,25.6,21.4,30.53,NW,314,0.0,0.0,84,0.00,CLR,,0.00,63.0,WeatherDisplay:10.37,2013-11-22 14:14:00,
2013-11-22 08:19:00,25.4,21.2,30.53,NW,313,0.1,2.3,84,0.00,CLR,,0.00,86.0,WeatherDisplay:10.37,2013-11-22 14:19:00,
2013-11-22 08:24:00,25.6,21.4,30.53,NW,320,5.4,7.2,84,0.00,CLR,,0.00,54.0,WeatherDisplay:10.37,2013-11-22 14:24:00,
2013-11-22 08:29:00,25.4,21.0,30.53,NW,319,2.0,6.0,83,0.00,CLR,,0.00,118.0,WeatherDisplay:10.37,2013-11-22 14:29:00,
2013-11-22 08:34:00,25.4,21.0,30.53,North,9,2.3,6.9,83,0.00,CLR,,0.00,102.0,WeatherDisplay:10.37,2013-11-22 14:34:00,
2013-11-22 08:39:00,25.6,21.2,30.53,NW,313,5.5,7.2,83,0.00,CLR,,0.00,105.0,WeatherDisplay:10.37,2013-11-22 14:39:00,
2013-11-22 08:44:00,25.4,20.7,30.53,NW,319,7.0,10.8,82,0.00,CLR,,0.00,120.0,WeatherDisplay:10.37,2013-11-22 14:44:00,
2013-11-22 08:49:00,25.4,20.7,30.53,WNW,292,4.3,8.1,82,0.00,CLR,,0.00,100.0,WeatherDisplay:10.37,2013-11-22 14:49:00,
2013-11-22 08:54:00,25.6,20.9,30.53,NW,317,3.6,6.0,82,0.00,CLR,,0.00,199.0,WeatherDisplay:10.37,2013-11-22 14:54:00,
2013-11-22 08:59:00,25.7,20.7,30.53,NW,318,2.5,7.2,81,0.00,CLR,,0.00,141.0,WeatherDisplay:10.37,2013-11-22 14:59:00,
2013-11-22 09:04:00,25.6,20.6,30.53,NW,311,5.9,8.4,81,0.00,CLR,,0.00,162.0,WeatherDisplay:10.37,2013-11-22 15:04:00,
2013-11-22 09:09:00,25.8,20.8,30.53,NW,325,0.0,2.3,81,0.00,CLR,,0.00,209.0,WeatherDisplay:10.37,2013-11-22 15:09:00,
2013-11-22 09:14:00,26.0,21.0,30.53,NW,304,3.4,9.6,81,0.00,CLR,,0.00,274.0,WeatherDisplay:10.37,2013-11-22 15:14:00,
2013-11-22 09:19:00,25.8,20.5,30.53,West,263,2.0,5.8,80,0.00,CLR,,0.00,171.0,WeatherDisplay:10.37,2013-11-22 15:19:00,
2013-11-22 09:24:00,25.8,20.8,30.53,WNW,296,2.8,6.0,81,0.00,CLR,,0.00,221.0,WeatherDisplay:10.37,2013-11-22 15:24:00,
2013-11-22 09:29:00,25.7,20.7,30.53,West,279,1.0,6.0,81,0.00,CLR,,0.00,97.0,WeatherDisplay:10.37,2013-11-22 15:29:00,
2013-11-22 09:34:00,26.0,21.3,30.55,NW,307,4.2,8.4,82,0.00,CLR,,0.00,237.0,WeatherDisplay:10.37,2013-11-22 15:34:00,
2013-11-22 09:39:00,25.8,20.8,30.55,NW,317,5.2,8.4,81,0.00,CLR,,0.00,281.0,WeatherDisplay:10.37,2013-11-22 15:39:00,
2013-11-22 09:44:00,26.0,20.7,30.55,WNW,299,0.0,5.8,80,0.00,CLR,,0.00,350.0,WeatherDisplay:10.37,2013-11-22 15:44:00,
2013-11-22 09:49:00,26.1,20.8,30.55,NW,309,0.0,1.2,80,0.00,CLR,,0.00,234.0,WeatherDisplay:10.37,2013-11-22 15:49:00,
2013-11-22 09:54:00,26.3,20.7,30.55,WNW,290,2.7,6.9,79,0.00,CLR,,0.00,262.0,WeatherDisplay:10.37,2013-11-22 15:54:00,
2013-11-22 09:59:00,26.3,20.7,30.55,West,281,2.5,6.0,79,0.00,CLR,,0.00,183.0,WeatherDisplay:10.37,2013-11-22 15:59:00,
2013-11-22 10:04:00,26.6,21.0,30.55,NW,315,2.3,7.2,79,0.00,CLR,,0.00,288.0,WeatherDisplay:10.37,2013-11-22 16:04:00,
2013-11-22 10:09:00,26.4,20.5,30.55,NW,311,2.2,6.9,78,0.00,CLR,,0.00,390.0,WeatherDisplay:10.37,2013-11-22 16:09:00,
2013-11-22 10:14:00,26.9,21.0,30.55,WNW,293,1.9,4.8,78,0.00,CLR,,0.00,422.0,WeatherDisplay:10.37,2013-11-22 16:14:00,
2013-11-22 10:19:00,26.9,20.7,30.55,NW,314,2.3,7.2,77,0.00,CLR,,0.00,427.0,WeatherDisplay:10.37,2013-11-22 16:19:00,
2013-11-22 10:24:00,26.9,20.7,30.55,West,274,1.4,4.8,77,0.00,CLR,,0.00,448.0,WeatherDisplay:10.37,2013-11-22 16:24:00,
2013-11-22 10:29:00,27.0,20.7,30.55,WNW,298,0.9,3.6,77,0.00,CLR,,0.00,446.0,WeatherDisplay:10.37,2013-11-22 16:29:00,
2013-11-22 10:34:00,27.0,20.7,30.55,WNW,294,1.1,6.0,77,0.00,CLR,,0.00,462.0,WeatherDisplay:10.37,2013-11-22 16:34:00,
2013-11-22 10:39:00,26.9,20.7,30.55,WNW,291,4.3,7.2,77,0.00,CLR,,0.00,468.0,WeatherDisplay:10.37,2013-11-22 16:39:00,
2013-11-22 10:44:00,27.2,21.2,30.54,WNW,296,0.0,0.0,78,0.00,CLR,,0.00,473.0,WeatherDisplay:10.37,2013-11-22 16:44:00,
2013-11-22 10:49:00,27.2,20.6,30.54,WSW,250,2.9,6.9,76,0.00,CLR,,0.00,482.0,WeatherDisplay:10.37,2013-11-22 16:49:00,
2013-11-22 10:54:00,27.2,20.6,30.54,West,273,1.4,6.0,76,0.00,CLR,,0.00,482.0,WeatherDisplay:10.37,2013-11-22 16:54:00,
2013-11-22 10:59:00,27.2,20.3,30.54,West,281,0.1,10.4,75,0.00,CLR,,0.00,483.0,WeatherDisplay:10.37,2013-11-22 16:59:00,
2013-11-22 11:04:00,27.2,20.6,30.55,WNW,290,1.2,4.8,76,0.00,CLR,,0.00,487.0,WeatherDisplay:10.37,2013-11-22 17:04:00,
2013-11-22 11:09:00,27.3,20.4,30.55,West,273,4.5,9.2,75,0.00,CLR,,0.00,487.0,WeatherDisplay:10.37,2013-11-22 17:09:00,
2013-11-22 11:14:00,27.5,20.6,30.55,WNW,299,2.0,6.0,75,0.00,CLR,,0.00,490.0,WeatherDisplay:10.37,2013-11-22 17:14:00,
2013-11-22 11:19:00,27.8,20.9,30.55,WNW,296,1.3,6.0,75,0.00,CLR,,0.00,492.0,WeatherDisplay:10.37,2013-11-22 17:19:00,
2013-11-22 11:24:00,28.1,20.9,30.55,NW,314,0.1,4.6,74,0.00,CLR,,0.00,492.0,WeatherDisplay:10.37,2013-11-22 17:24:00,
2013-11-22 11:29:00,28.2,20.7,30.55,WNW,298,2.6,8.4,73,0.00,CLR,,0.00,496.0,WeatherDisplay:10.37,2013-11-22 17:29:00,
2013-11-22 11:34:00,28.5,20.6,30.55,WNW,303,6.4,8.4,72,0.00,CLR,,0.00,496.0,WeatherDisplay:10.37,2013-11-22 17:34:00,
2013-11-22 11:39:00,28.4,20.2,30.55,WNW,300,1.7,6.9,71,0.00,CLR,,0.00,494.0,WeatherDisplay:10.37,2013-11-22 17:39:00,
2013-11-22 11:44:00,28.5,20.3,30.55,WNW,301,3.5,7.2,71,0.00,CLR,,0.00,496.0,WeatherDisplay:10.37,2013-11-22 17:44:00,
2013-11-22 11:49:00,28.7,20.1,30.55,NW,321,5.9,8.4,70,0.00,CLR,,0.00,494.0,WeatherDisplay:10.37,2013-11-22 17:49:00,
2013-11-22 11:54:00,28.7,19.8,30.55,NW,314,3.8,7.2,69,0.00,CLR,,0.00,492.0,WeatherDisplay:10.37,2013-11-22 17:54:00,
2013-11-22 11:59:00,29.0,19.8,30.55,NNW,327,4.3,8.4,68,0.00,CLR,,0.00,490.0,WeatherDisplay:10.37,2013-11-22 17:59:00,
2013-11-22 12:04:00,29.5,20.2,30.55,WNW,290,3.4,10.8,68,0.00,CLR,,0.00,490.0,WeatherDisplay:10.37,2013-11-22 18:04:00,
2013-11-22 12:09:00,29.4,20.1,30.55,WNW,285,3.6,6.9,68,0.00,CLR,,0.00,487.0,WeatherDisplay:10.37,2013-11-22 18:09:00,
2013-11-22 12:14:00,29.8,20.5,30.55,WNW,300,0.3,4.6,68,0.00,CLR,,0.00,483.0,WeatherDisplay:10.37,2013-11-22 18:14:00,
2013-11-22 12:19:00,29.7,19.7,30.55,WNW,297,0.0,0.0,66,0.00,CLR,,0.00,480.0,WeatherDisplay:10.37,2013-11-22 18:19:00,
2013-11-22 12:24:00,29.7,19.0,30.55,West,271,4.6,12.0,64,0.00,CLR,,0.00,478.0,WeatherDisplay:10.37,2013-11-22 18:24:00,
2013-11-22 12:29:00,29.7,19.4,30.55,West,277,6.4,8.1,65,0.00,CLR,,0.00,475.0,WeatherDisplay:10.37,2013-11-22 18:29:00,
2013-11-22 12:34:00,30.3,19.9,30.55,West,279,0.0,3.5,65,0.00,CLR,,0.00,469.0,WeatherDisplay:10.37,2013-11-22 18:34:00,
2013-11-22 12:39:00,30.3,18.8,30.55,SW,221,3.6,7.2,62,0.00,CLR,,0.00,468.0,WeatherDisplay:10.37,2013-11-22 18:39:00,
2013-11-22 12:44:00,30.3,18.8,30.55,West,272,7.2,9.6,62,0.00,CLR,,0.00,462.0,WeatherDisplay:10.37,2013-11-22 18:44:00,
2013-11-22 12:49:00,30.7,19.2,30.55,WNW,290,4.7,9.6,62,0.00,CLR,,0.00,455.0,WeatherDisplay:10.37,2013-11-22 18:49:00,
2013-11-22 12:54:00,31.2,19.7,30.55,West,265,0.4,5.8,62,0.00,CLR,,0.00,452.0,WeatherDisplay:10.37,2013-11-22 18:54:00,
2013-11-22 12:59:00,31.0,18.7,30.55,NW,321,5.2,7.2,60,0.00,CLR,,0.00,446.0,WeatherDisplay:10.37,2013-11-22 18:59:00,
2013-11-22 13:04:00,31.0,18.3,30.55,NNW,342,4.9,8.4,59,0.00,CLR,,0.00,439.0,WeatherDisplay:10.37,2013-11-22 19:04:00,
2013-11-22 13:09:00,31.2,18.5,30.55,NW,319,0.6,4.8,59,0.00,CLR,,0.00,432.0,WeatherDisplay:10.37,2013-11-22 19:09:00,
2013-11-22 13:14:00,31.6,19.7,30.55,WNW,287,0.7,4.8,61,0.00,CLR,,0.00,427.0,WeatherDisplay:10.37,2013-11-22 19:14:00,
2013-11-22 13:19:00,31.5,19.2,30.55,West,271,3.9,9.2,60,0.00,CLR,,0.00,420.0,WeatherDisplay:10.37,2013-11-22 19:19:00,
2013-11-22 13:24:00,31.8,19.5,30.55,West,276,0.3,5.8,60,0.00,CLR,,0.00,415.0,WeatherDisplay:10.37,2013-11-22 19:24:00,
2013-11-22 13:29:00,31.6,18.5,30.55,WNW,286,1.8,7.2,58,0.00,CLR,,0.00,404.0,WeatherDisplay:10.37,2013-11-22 19:29:00,
2013-11-22 13:34:00,31.8,17.9,30.55,West,280,2.4,6.0,56,0.00,CLR,,0.00,397.0,WeatherDisplay:10.37,2013-11-22 19:34:00,
2013-11-22 13:39:00,32.7,19.5,30.55,West,279,0.7,3.6,58,0.00,CLR,,0.00,388.0,WeatherDisplay:10.37,2013-11-22 19:39:00,
2013-11-22 13:44:00,32.7,18.3,30.55,NW,317,3.0,6.0,55,0.00,CLR,,0.00,380.0,WeatherDisplay:10.37,2013-11-22 19:44:00,
2013-11-22 13:49:00,32.5,16.8,30.55,NW,315,1.4,6.9,52,0.00,CLR,,0.00,373.0,WeatherDisplay:10.37,2013-11-22 19:49:00,
2013-11-22 13:54:00,32.5,17.2,30.55,NW,323,3.5,6.0,53,0.00,CLR,,0.00,364.0,WeatherDisplay:10.37,2013-11-22 19:54:00,
2013-11-22 13:59:00,32.5,17.2,30.55,West,280,4.4,7.2,53,0.00,CLR,,0.00,355.0,WeatherDisplay:10.37,2013-11-22 19:59:00,
2013-11-22 14:04:00,32.7,17.0,30.55,WNW,298,0.0,0.0,52,0.00,CLR,,0.00,345.0,WeatherDisplay:10.37,2013-11-22 20:04:00,
2013-11-22 14:09:00,32.9,16.3,30.55,West,273,1.9,4.8,50,0.00,CLR,,0.00,336.0,WeatherDisplay:10.37,2013-11-22 20:09:00,
2013-11-22 14:14:00,33.1,16.0,30.55,WNW,302,3.5,7.2,49,0.00,CLR,,0.00,325.0,WeatherDisplay:10.37,2013-11-22 20:14:00,
2013-11-22 14:19:00,33.1,16.0,30.55,WNW,284,0.7,3.6,49,0.00,CLR,,0.00,315.0,WeatherDisplay:10.37,2013-11-22 20:19:00,
2013-11-22 14:24:00,33.1,14.0,30.55,West,269,3.0,7.2,45,0.00,CLR,,0.00,306.0,WeatherDisplay:10.37,2013-11-22 20:24:00,
2013-11-22 14:29:00,33.2,16.1,30.55,NW,305,0.3,2.4,49,0.00,CLR,,0.00,294.0,WeatherDisplay:10.37,2013-11-22 20:29:00,
2013-11-22 14:34:00,33.2,14.6,30.54,NW,311,1.2,6.0,46,0.00,CLR,,0.00,279.0,WeatherDisplay:10.37,2013-11-22 20:34:00,
2013-11-22 14:39:00,33.7,16.1,30.54,WNW,288,0.0,0.0,48,0.00,CLR,,0.00,271.0,WeatherDisplay:10.37,2013-11-22 20:39:00,
2013-11-22 14:44:00,33.7,15.1,30.54,West,270,2.2,6.0,46,0.00,CLR,,0.00,260.0,WeatherDisplay:10.37,2013-11-22 20:44:00,
2013-11-22 14:49:00,33.5,15.4,30.55,West,267,3.6,8.1,47,0.00,CLR,,0.00,250.0,WeatherDisplay:10.37,2013-11-22 20:49:00,
2013-11-22 14:54:00,33.7,14.6,30.55,SW,222,2.1,7.2,45,0.00,CLR,,0.00,220.0,WeatherDisplay:10.37,2013-11-22 20:54:00,
2013-11-22 14:59:00,33.4,13.8,30.54,SW,227,5.1,6.9,44,0.00,CLR,,0.00,156.0,WeatherDisplay:10.37,2013-11-22 20:59:00,
2013-11-22 15:04:00,33.5,14.4,30.54,SW,225,4.9,8.4,45,0.00,CLR,,0.00,188.0,WeatherDisplay:10.37,2013-11-22 21:04:00,
2013-11-22 15:09:00,33.4,15.3,30.54,West,281,2.8,6.0,47,0.00,CLR,,0.00,179.0,WeatherDisplay:10.37,2013-11-22 21:09:00,
2013-11-22 15:14:00,33.2,16.1,30.54,West,259,1.4,7.2,49,0.00,CLR,,0.00,153.0,WeatherDisplay:10.37,2013-11-22 21:14:00,
2013-11-22 15:19:00,33.2,15.6,30.54,SW,233,2.8,8.4,48,0.00,CLR,,0.00,86.0,WeatherDisplay:10.37,2013-11-22 21:19:00,
2013-11-22 15:24:00,33.1,15.5,30.54,WSW,242,3.1,6.0,48,0.00,CLR,,0.00,65.0,WeatherDisplay:10.37,2013-11-22 21:24:00,
2013-11-22 15:29:00,32.9,15.3,30.53,West,276,4.6,7.2,48,0.00,CLR,,0.00,54.0,WeatherDisplay:10.37,2013-11-22 21:29:00,
2013-11-22 15:34:00,32.7,15.6,30.53,SW,225,1.2,6.9,49,0.00,CLR,,0.00,40.0,WeatherDisplay:10.37,2013-11-22 21:34:00,
2013-11-22 15:39:00,32.5,15.9,30.53,WSW,257,0.0,0.0,50,0.00,CLR,,0.00,32.0,WeatherDisplay:10.37,2013-11-22 21:39:00,
2013-11-22 15:44:00,32.5,15.4,30.53,West,261,3.0,6.0,49,0.00,CLR,,0.00,33.0,WeatherDisplay:10.37,2013-11-22 21:44:00,
2013-11-22 15:49:00,32.4,13.9,30.53,West,260,3.0,4.8,46,0.00,CLR,,0.00,28.0,WeatherDisplay:10.37,2013-11-22 21:49:00,
2013-11-22 15:54:00,32.2,13.2,30.53,West,274,3.1,6.0,45,0.00,CLR,,0.00,23.0,WeatherDisplay:10.37,2013-11-22 21:54:00,
2013-11-22 15:59:00,32.1,13.1,30.53,WSW,245,2.6,6.0,45,0.00,CLR,,0.00,30.0,WeatherDisplay:10.37,2013-11-22 21:59:00,
2013-11-22 16:04:00,32.1,14.1,30.54,WSW,240,1.3,6.0,47,0.00,CLR,,0.00,18.0,WeatherDisplay:10.37,2013-11-22 22:04:00,
2013-11-22 16:09:00,31.9,13.9,30.54,WSW,243,0.0,0.0,47,0.00,CLR,,0.00,14.0,WeatherDisplay:10.37,2013-11-22 22:09:00,
2013-11-22 16:14:00,31.8,14.3,30.53,WSW,244,0.0,0.0,48,0.00,CLR,,0.00,21.0,WeatherDisplay:10.37,2013-11-22 22:14:00,
2013-11-22 16:20:00,31.6,14.1,30.53,WSW,244,0.0,0.0,48,0.00,CLR,,0.00,9.0,WeatherDisplay:10.37,2013-11-22 22:20:00,
2013-11-22 16:25:00,31.3,14.3,30.53,SW,225,0.0,3.5,49,0.00,CLR,,0.00,7.0,WeatherDisplay:10.37,2013-11-22 22:25:00,
2013-11-22 16:30:00,31.2,15.2,30.53,WSW,238,0.0,0.0,51,0.00,CLR,,0.00,5.0,WeatherDisplay:10.37,2013-11-22 22:30:00,
2013-11-22 16:35:00,30.9,14.9,30.51,WSW,237,0.0,0.0,51,0.00,CLR,,0.00,0.0,WeatherDisplay:10.37,2013-11-22 22:35:00,
2013-11-22 16:40:00,30.7,14.7,30.51,WSW,237,0.0,0.0,51,0.00,CLR,,0.00,0.0,WeatherDisplay:10.37,2013-11-22 22:40:00,
2013-11-22 16:45:00,30.6,14.6,30.52,SW,234,0.1,3.6,51,0.00,CLR,,0.00,0.0,WeatherDisplay:10.37,2013-11-22 22:45:00,
2013-11-22 16:50:00,30.4,14.4,30.52,WSW,252,0.1,1.2,51,0.00,CLR,,0.00,0.0,WeatherDisplay:10.37,2013-11-22 22:50:00,
2013-11-22 16:55:00,30.3,14.3,30.52,West,264,0.0,0.0,51,0.00,CLR,,0.00,0.0,WeatherDisplay:10.37,2013-11-22 22:55:00,
2013-11-22 17:00:00,30.0,13.6,30.52,WSW,251,0.0,0.0,50,0.00,CLR,,0.00,0.0,WeatherDisplay:10.37,2013-11-22 23:00:00,
2013-11-22 17:05:00,29.8,13.4,30.51,WSW,251,0.0,0.0,50,0.00,CLR,,0.00,0.0,WeatherDisplay:10.37,2013-11-22 23:05:00,
2013-11-22 17:10:00,29.7,13.3,30.51,WSW,248,0.0,0.0,50,0.00,CLR,,0.00,0.0,WeatherDisplay:10.37,2013-11-22 23:10:00,
2013-11-22 17:15:00,29.5,13.6,30.51,SSW,212,0.0,0.0,51,0.00,CLR,,0.00,0.0,WeatherDisplay:10.37,2013-11-22 23:15:00,
2013-11-22 17:20:00,29.3,14.3,30.50,WSW,240,0.6,2.4,53,0.00,CLR,,0.00,0.0,WeatherDisplay:10.37,2013-11-22 23:20:00,
2013-11-22 17:25:00,29.1,14.1,30.50,WSW,240,0.0,0.0,53,0.00,CLR,,0.00,0.0,WeatherDisplay:10.37,2013-11-22 23:25:00,
2013-11-22 17:30:00,29.1,13.6,30.50,WSW,255,0.0,0.0,52,0.00,CLR,,0.00,0.0,WeatherDisplay:10.37,2013-11-22 23:30:00,
2013-11-22 17:35:00,29.1,13.6,30.50,SW,223,0.0,0.0,52,0.00,CLR,,0.00,0.0,WeatherDisplay:10.37,2013-11-22 23:35:00,
2013-11-22 17:40:00,29.1,13.6,30.50,WSW,248,0.0,0.0,52,0.00,CLR,,0.00,0.0,WeatherDisplay:10.37,2013-11-22 23:40:00,
2013-11-22 17:45:00,29.0,14.0,30.50,WSW,248,0.0,0.0,53,0.00,CLR,,0.00,0.0,WeatherDisplay:10.37,2013-11-22 23:45:00,
2013-11-22 17:50:00,29.0,14.0,30.50,WNW,303,0.1,1.2,53,0.00,CLR,,0.00,0.0,WeatherDisplay:10.37,2013-11-22 23:50:00,
2013-11-22 17:55:00,28.8,13.8,30.50,West,263,0.1,3.5,53,0.00,CLR,,0.00,0.0,WeatherDisplay:10.37,2013-11-22 23:55:00,
2013-11-22 18:00:00,28.8,14.2,30.50,West,267,0.6,2.4,54,0.00,CLR,,0.00,0.0,WeatherDisplay:10.37,2013-11-23 00:00:00,
2013-11-22 18:05:00,28.7,14.1,30.50,WSW,242,0.0,4.6,54,0.00,CLR,,0.00,0.0,WeatherDisplay:10.37,2013-11-23 00:05:00,
2013-11-22 18:10:00,28.7,14.1,30.50,WSW,246,0.0,1.2,54,0.00,CLR,,0.00,0.0,WeatherDisplay:10.37,2013-11-23 00:10:00,
2013-11-22 18:15:00,28.5,14.4,30.50,SW,226,0.0,0.0,55,0.00,CLR,,0.00,0.0,WeatherDisplay:10.37,2013-11-23 00:15:00,
2013-11-22 18:20:00,28.4,14.7,30.50,SW,226,0.0,0.0,56,0.00,CLR,,0.00,0.0,WeatherDisplay:10.37,2013-11-23 00:20:00,
2013-11-22 18:25:00,28.2,14.5,30.50,SW,231,0.9,2.4,56,0.00,CLR,,0.00,0.0,WeatherDisplay:10.37,2013-11-23 00:25:00,
2013-11-22 18:30:00,28.2,14.9,30.50,SW,232,0.0,0.0,57,0.00,CLR,,0.00,0.0,WeatherDisplay:10.37,2013-11-23 00:30:00,
2013-11-22 18:35:00,28.1,14.8,30.50,WSW,237,0.0,0.0,57,0.00,CLR,,0.00,0.0,WeatherDisplay:10.37,2013-11-23 00:35:00,
2013-11-22 18:40:00,28.1,14.8,30.50,SW,224,0.0,0.0,57,0.00,CLR,,0.00,0.0,WeatherDisplay:10.37,2013-11-23 00:40:00,
2013-11-22 18:45:00,28.1,14.8,30.49,SW,224,0.0,0.0,57,0.00,CLR,,0.00,0.0,WeatherDisplay:10.37,2013-11-23 00:45:00,
2013-11-22 18:50:00,27.9,14.6,30.49,SW,222,2.2,3.6,57,0.00,CLR,,0.00,0.0,WeatherDisplay:10.37,2013-11-23 00:50:00,
2013-11-22 18:55:00,27.9,13.8,30.49,SW,232,2.2,3.6,55,0.00,CLR,,0.00,0.0,WeatherDisplay:10.37,2013-11-23 00:55:00,
2013-11-22 19:00:00,27.8,14.1,30.49,SW,232,0.0,0.0,56,0.00,CLR,,0.00,0.0,WeatherDisplay:10.37,2013-11-23 01:00:00,
2013-11-22 19:05:00,27.8,14.1,30.49,SW,233,0.0,0.0,56,0.00,CLR,,0.00,0.0,WeatherDisplay:10.37,2013-11-23 01:05:00,
2013-11-22 19:10:00,27.6,13.9,30.49,WSW,253,0.0,2.3,56,0.00,CLR,,0.00,0.0,WeatherDisplay:10.37,2013-11-23 01:10:00,
2013-11-22 19:15:00,27.5,13.8,30.49,WSW,242,0.7,2.4,56,0.00,CLR,,0.00,0.0,WeatherDisplay:10.37,2013-11-23 01:15:00,
2013-11-22 19:20:00,27.3,13.7,30.49,West,267,0.2,3.6,56,0.00,CLR,,0.00,0.0,WeatherDisplay:10.37,2013-11-23 01:20:00,
2013-11-22 19:25:00,27.3,13.7,30.49,SSW,202,2.7,6.0,56,0.00,CLR,,0.00,0.0,WeatherDisplay:10.37,2013-11-23 01:25:00,
2013-11-22 19:30:00,27.3,13.7,30.49,SW,236,4.5,8.4,56,0.00,CLR,,0.00,0.0,WeatherDisplay:10.37,2013-11-23 01:30:00,
2013-11-22 19:35:00,27.3,13.2,30.48,SW,216,7.1,8.4,55,0.00,CLR,,0.00,0.0,WeatherDisplay:10.37,2013-11-23 01:35:00,
2013-11-22 19:40:00,27.2,13.1,30.48,WSW,254,4.4,8.4,55,0.00,CLR,,0.00,0.0,WeatherDisplay:10.37,2013-11-23 01:40:00,
2013-11-22 19:45:00,27.3,12.8,30.48,SW,236,3.0,9.2,54,0.00,CLR,,0.00,0.0,WeatherDisplay:10.37,2013-11-23 01:45:00,
2013-11-22 19:50:00,27.3,12.8,30.48,West,263,1.0,3.6,54,0.00,CLR,,0.00,0.0,WeatherDisplay:10.37,2013-11-23 01:50:00,
2013-11-22 19:55:00,27.3,12.0,30.48,WNW,289,4.2,7.2,52,0.00,CLR,,0.00,0.0,WeatherDisplay:10.37,2013-11-23 01:55:00,
2013-11-22 20:00:00,27.2,11.9,30.48,SW,232,2.0,6.9,52,0.00,CLR,,0.00,0.0,WeatherDisplay:10.37,2013-11-23 02:00:00,
2013-11-22 20:05:00,27.0,11.7,30.48,WSW,248,1.3,4.8,52,0.00,CLR,,0.00,0.0,WeatherDisplay:10.37,2013-11-23 02:05:00,
2013-11-22 20:10:00,27.0,11.7,30.48,West,263,0.6,2.4,52,0.00,CLR,,0.00,0.0,WeatherDisplay:10.37,2013-11-23 02:10:00,
2013-11-22 20:15:00,26.9,11.6,30.48,West,262,0.0,5.8,52,0.00,CLR,,0.00,0.0,WeatherDisplay:10.37,2013-11-23 02:15:00,
2013-11-22 20:20:00,26.7,11.4,30.48,West,265,0.7,3.6,52,0.00,CLR,,0.00,0.0,WeatherDisplay:10.37,2013-11-23 02:20:00,
2013-11-22 20:25:00,26.7,11.4,30.48,West,273,0.4,4.6,52,0.00,CLR,,0.00,0.0,WeatherDisplay:10.37,2013-11-23 02:25:00,
2013-11-22 20:30:00,26.6,11.3,30.47,WSW,258,0.0,0.0,52,0.00,CLR,,0.00,0.0,WeatherDisplay:10.37,2013-11-23 02:30:00,
2013-11-22 20:35:00,26.6,11.3,30.47,SW,229,0.0,0.0,52,0.00,CLR,,0.00,0.0,WeatherDisplay:10.37,2013-11-23 02:35:00,
2013-11-22 20:40:00,26.4,11.6,30.47,West,260,0.0,0.0,53,0.00,CLR,,0.00,0.0,WeatherDisplay:10.37,2013-11-23 02:40:00,
2013-11-22 20:45:00,26.3,11.5,30.47,West,271,0.0,1.2,53,0.00,CLR,,0.00,0.0,WeatherDisplay:10.37,2013-11-23 02:45:00,
2013-11-22 20:50:00,26.3,11.5,30.47,West,265,0.0,0.0,53,0.00,CLR,,0.00,0.0,WeatherDisplay:10.37,2013-11-23 02:50:00,
2013-11-22 20:55:00,26.1,11.3,30.47,WSW,250,0.0,0.0,53,0.00,CLR,,0.00,0.0,WeatherDisplay:10.37,2013-11-23 02:55:00,
2013-11-22 21:00:00,26.1,11.3,30.47,West,259,0.0,0.0,53,0.00,CLR,,0.00,0.0,WeatherDisplay:10.37,2013-11-23 03:00:00,
2013-11-22 21:05:00,26.3,11.5,30.47,West,269,4.4,6.0,53,0.00,CLR,,0.00,0.0,WeatherDisplay:10.37,2013-11-23 03:05:00,
2013-11-22 21:10:00,26.3,11.5,30.47,West,275,0.0,3.5,53,0.00,CLR,,0.00,0.0,WeatherDisplay:10.37,2013-11-23 03:10:00,
2013-11-22 21:15:00,26.1,11.7,30.47,WNW,286,0.1,4.6,54,0.00,CLR,,0.00,0.0,WeatherDisplay:10.37,2013-11-23 03:15:00,
2013-11-22 21:20:00,26.1,12.1,30.47,West,261,0.0,0.0,55,0.00,CLR,,0.00,0.0,WeatherDisplay:10.37,2013-11-23 03:20:00,
2013-11-22 21:25:00,26.0,12.0,30.47,West,260,2.1,4.8,55,0.00,CLR,,0.00,0.0,WeatherDisplay:10.37,2013-11-23 03:25:00,
2013-11-22 21:30:00,26.1,12.1,30.46,WNW,289,0.6,3.6,55,0.00,CLR,,0.00,0.0,WeatherDisplay:10.37,2013-11-23 03:30:00,
2013-11-22 21:35:00,26.1,12.1,30.46,WSW,239,0.0,6.9,55,0.00,CLR,,0.00,0.0,WeatherDisplay:10.37,2013-11-23 03:35:00,
2013-11-22 21:40:00,26.0,12.0,30.46,WSW,258,1.0,4.8,55,0.00,CLR,,0.00,0.0,WeatherDisplay:10.37,2013-11-23 03:40:00,
2013-11-22 21:45:00,26.0,12.0,30.47,NW,312,2.2,6.0,55,0.00,SCT,,0.00,0.0,WeatherDisplay:10.37,2013-11-23 03:45:00,
2013-11-22 21:50:00,26.1,12.5,30.47,West,274,3.1,5.8,56,0.00,SCT,,0.00,0.0,WeatherDisplay:10.37,2013-11-23 03:50:00,
2013-11-22 21:55:00,26.0,12.4,30.47,WSW,250,2.4,5.8,56,0.00,SCT,,0.00,0.0,WeatherDisplay:10.37,2013-11-23 03:55:00,
2013-11-22 22:00:00,26.0,12.0,30.47,West,263,3.4,8.4,55,0.00,SCT,,0.00,0.0,WeatherDisplay:10.37,2013-11-23 04:00:00,
2013-11-22 22:05:00,26.0,12.0,30.47,West,281,3.6,5.8,55,0.00,BKN,,0.00,0.0,WeatherDisplay:10.37,2013-11-23 04:05:00,
2013-11-22 22:10:00,25.8,12.2,30.47,WSW,258,0.7,3.6,56,0.00,BKN,,0.00,0.0,WeatherDisplay:10.37,2013-11-23 04:10:00,
2013-11-22 22:15:00,25.8,12.2,30.47,WNW,286,0.4,4.6,56,0.00,BKN,,0.00,0.0,WeatherDisplay:10.37,2013-11-23 04:15:00,
2013-11-22 22:20:00,25.8,12.2,30.47,WSW,246,0.0,0.0,56,0.00,BKN,,0.00,0.0,WeatherDisplay:10.37,2013-11-23 04:20:00,
2013-11-22 22:25:00,25.7,12.6,30.47,West,263,1.5,4.8,57,0.00,OVC,,0.00,0.0,WeatherDisplay:10.37,2013-11-23 04:25:00,
2013-11-22 22:30:00,25.8,13.0,30.46,WSW,255,0.6,6.0,58,0.00,OVC,,0.00,0.0,WeatherDisplay:10.37,2013-11-23 04:30:00,
2013-11-22 22:35:00,26.0,12.8,30.46,NW,307,4.0,9.6,57,0.00,OVC,,0.00,0.0,WeatherDisplay:10.37,2013-11-23 04:35:00,
2013-11-22 22:40:00,26.1,12.9,30.46,SW,229,3.5,8.4,57,0.00,OVC,,0.00,0.0,WeatherDisplay:10.37,2013-11-23 04:40:00,
2013-11-22 22:45:00,26.1,12.9,30.46,WNW,282,1.0,5.8,57,0.00,OVC,,0.00,0.0,WeatherDisplay:10.37,2013-11-23 04:45:00,
2013-11-22 22:50:00,26.3,13.5,30.46,WNW,289,3.4,6.0,58,0.00,OVC,,0.00,0.0,WeatherDisplay:10.37,2013-11-23 04:50:00,
2013-11-22 22:55:00,26.3,13.5,30.46,West,263,3.7,9.2,58,0.00,OVC,,0.00,0.0,WeatherDisplay:10.37,2013-11-23 04:55:00,
2013-11-22 23:00:00,26.4,13.6,30.46,West,267,6.0,10.8,58,0.00,OVC,,0.00,0.0,WeatherDisplay:10.37,2013-11-23 05:00:00,
2013-11-22 23:01:00,26.4,13.6,30.46,WNW,289,3.5,10.4,58,0.00,BKN,,0.00,0.0,WeatherDisplay:10.37,2013-11-23 05:01:00,
2013-11-22 23:02:00,26.4,13.6,30.46,WNW,288,4.4,8.4,58,0.00,BKN,,0.00,0.0,WeatherDisplay:10.37,2013-11-23 05:02:00,
2013-11-22 23:03:00,26.4,14.0,30.46,WNW,288,5.4,10.8,59,0.00,BKN,,0.00,0.0,WeatherDisplay:10.37,2013-11-23 05:03:00,
2013-11-22 23:04:00,26.4,14.0,30.46,WNW,288,5.4,10.8,59,0.00,BKN,,0.00,0.0,WeatherDisplay:10.37,2013-11-23 05:04:00,
2013-11-22 23:09:00,26.6,14.2,30.46,West,273,7.2,12.7,59,0.00,BKN,,0.00,0.0,WeatherDisplay:10.37,2013-11-23 05:09:00,
2013-11-22 23:14:00,26.4,13.6,30.46,West,272,5.6,9.2,58,0.00,BKN,,0.00,0.0,WeatherDisplay:10.37,2013-11-23 05:14:00,
2013-11-22 23:19:00,26.4,14.0,30.46,WNW,293,4.8,8.1,59,0.00,BKN,,0.00,0.0,WeatherDisplay:10.37,2013-11-23 05:19:00,
2013-11-22 23:24:00,26.4,14.0,30.46,WNW,302,7.0,12.0,59,0.00,SCT,,0.00,0.0,WeatherDisplay:10.37,2013-11-23 05:24:00,
2013-11-22 23:29:00,26.4,14.4,30.46,NW,306,4.4,9.2,60,0.00,SCT,,0.00,0.0,WeatherDisplay:10.37,2013-11-23 05:29:00,
2013-11-22 23:34:00,26.1,14.1,30.47,NW,318,9.4,16.1,60,0.00,SCT,,0.00,0.0,WeatherDisplay:10.37,2013-11-23 05:34:00,
2013-11-22 23:39:00,26.0,14.4,30.47,WNW,282,8.1,10.8,61,0.00,SCT,,0.00,0.0,WeatherDisplay:10.37,2013-11-23 05:39:00,
2013-11-22 23:44:00,25.7,14.5,30.47,NW,314,10.7,14.4,62,0.00,BKN,,0.00,0.0,WeatherDisplay:10.37,2013-11-23 05:44:00,
2013-11-22 23:49:00,25.4,14.9,30.47,NW,315,8.5,10.8,64,0.00,BKN,,0.00,0.0,WeatherDisplay:10.37,2013-11-23 05:49:00,
2013-11-22 23:54:00,25.1,15.3,30.47,NW,325,8.3,12.0,66,0.00,BKN,,0.00,0.0,WeatherDisplay:10.37,2013-11-23 05:54:00,
2013-11-22 23:59:00,24.8,15.0,30.47,WNW,303,12.2,19.2,66,0.00,BKN,,0.00,0.0,WeatherDisplay:10.37,2013-11-23 05:59:00,